GPS BIIRM-8 (PRN 05)

Last updated on Wed Jul 02 2025 00:03:13 GMT+0000 (Coordinated Universal Time)

1 35752U 09043A 25182.63615419 -.00000093 00000+0 00000+0 0 9992 2 35752 55.9748 41.2508 0055749 78.9375 292.0346 2.00574974116339
UTC large
Height (km)
Speed (km/s)
/
Latitude / Longitude
Inclination (degrees)
Orbital Period (minutes)
Azimuth
Elevation
Range (km)
Doppler Factor

Next 0 passes for location: London (51.5072 / 0.1276)

Sorry there are no passes over London.